Weather in Ulu-Telyak

Russia / Republic of Bashkortostan     54°54′48″N   56°58′36″E
temp.,
°C
wind,
m/s
gust,
m/s
humid.,
%
clouds,
%
prec.,
mm/h
press.,
hPa
HPBL,
m
25 february, thu
thu2523:00−22nnw248964 0.0 102684
02:00−25n22900 0.0 102920
05:00−27n12910 0.0 103119
08:00−29nne11930 0.0 103219
11:00−22ssw11850 0.0 1032241
14:00−18sw22790 0.0 1031455
17:00−18wsw238713 0.0 1030410
20:00−25ssw129719 0.0 103020
26 february, fri
fri2623:00−26se229714 0.0 103019
02:00−26se12950 0.0 102919
05:00−26ese12920 0.0 102819
08:00−25e12870 0.0 102719
11:00−18ese137540 0.0 1026232
14:00−12s247563 0.0 1023664
17:00−12s138080 0.0 1022721
20:00−17e119392 0.0 102120
27 february, sat
sat2723:00−18se129690 0.0 102120
02:00−19ese229439 0.0 101829
05:00−18ese359163 0.0 101598
08:00−17e3686100 0.0 1011162
11:00−14e3695100 1.1 1009209
14:00−10ese3693100 1.4 1006443
17:00−7sse2494100 2.1 1005425
20:00−8ese2596100 1.2 1005257
28 february, sun
sun2823:00−12e3695100 1.9 1005173
02:00−11e3595100 0.8 1004144
05:00−10e249699 1.4 1004114
08:00−8e2496100 0.7 1003103
11:00−4se239499 1.1 1003247
14:00−1s2397100 0.3 1003334
17:00−1ssw1297100 0.9 1004243
20:00−2s129897 0.6 100621
1 march, mon
mon123:00−4s129897 1.3 100823
02:00−4sse129898 0.7 100941
05:00−5s129899 1.3 101042
08:00−7sw229797 0.7 101170
11:00−7sw239594 1.1 1012234
14:00−6wsw239398 0.2 1013399
17:00−7wsw349499 0.5 1014355
20:00−10wsw2496100 0.4 1016174